User: anonymous   Login
Location: Unspecified
(0.0000°N, 0.0000°E)
Time: 13:44:21
(UTC+02:00)
Language:

Cosmos 1898 Rocket - Orbit

View from above orbital plane
View from above orbital plane
View from above satellite
View from above satellite

Ground track
Ground track

The orbit data is extracted from the following two-line orbital elements,

1 18586U 87098B   16239.16032135  .00000041  00000-0  22758-4 0  9995
2 18586  74.0069 118.5801 0021986 245.8763 228.2099 14.36731470504996
Epoch (UTC): 26 August 2016 03:50:51
Eccentricity: 0.0021986
inclination: 74.0069°
perigee height: 753 km
apogee height: 785 km
right ascension of ascending node: 118.5801°
argument of perigee: 245.8763°
revolutions per day: 14.36731470
mean anomaly at epoch: 228.2099°
orbit number at epoch: 50499

The dashed part of the orbit path shows where the satellite is in the earth's shadow,  

DLR